Terminal Aerodrome Forecast
Issued by NWS

Home | Current Version | Previous Version | Text Only | Print | Product List | Glossary On
Versions: 1 2 3 4 5 6 7 8 9 10 11 12 13
000
FTUS42 TJSJ 221200 AAA
TAFKPK
TAF AMD
TKPK 221214Z 2212/2312 08011KT P6SM SCT020
     FM222300 06005KT P6SM FEW022
      AMD NOT SKED 2302/2311=

USA.gov is the U.S. government's official web portal to all federal, state and local government web resources and services.